Location: Rio Negrinho
(26.2394°S, 49.4999°W)
Time: 19:41:20
(UTC+00:00)

Envisat - Pass Details

Date: 25 July 2021
Orbit: 764 x 766 km, 98.2° (Epoch: 17 September)

Event Time Altitude Azimuth Distance (km) Brightness Sun altitude
Rises 07:43:29 0° 20° (NNE) 3,214 6.6 -30.6°
Reaches altitude 10° 07:45:47 10° 22° (NNE) 2,296 5.8 -30.1°
Maximum altitude 07:50:48 67° 104° (ESE) 834 3.2 -29.0°
Enters shadow 07:51:05 65° 125° (SE) 843 3.2 -28.9°
